Location: Cartignies
(50.0929°N, 3.8447°E)
Time: 14:45:04
(UTC+00:00)

BREEZE-M DEB (TANK) - Pass Details

Date: 12 January 2026
Orbit: 608 x 17104 km, 49.5° (Epoch: 15 February)

Event Time Altitude Azimuth Distance (km) Brightness Sun altitude
Rises 18:44:18 0° 273° (W) 3,788 8.5 -24.5°
Reaches altitude 10° 18:47:16 10° 273° (W) 2,310 7.0 -24.9°
Enters shadow 18:51:11 73° 252° (WSW) 644 3.1 -25.6°
